When you browse on this site, cookies collect data to enhance your experience and personalize the content and advertising you see.
Visit our Privacy Policy to learn more. By continuing to use the site, you agree to this use of cookies and data.
  • en Suisse
  • Liste des pays
  • À 7 jours
  • Température de l'eau
  • Carte météo
  • Widgets météo
  • user-avatar
    Se connecter

    Météo par heure à Szolnok

    Ce jour, 27 Mai, Mercredi

    Heure Température Précipitation Vent Pression Humidité
    00:00 +10°C° 0 mm 4 m/s 761 mmHg 79%
    01:00 +10°C° 0 mm 4 m/s 761 mmHg 78%
    02:00 +10°C° 0 mm 4 m/s 761 mmHg 78%
    03:00 +9°C° 0 mm 5 m/s 761 mmHg 78%
    04:00 +9°C° 0 mm 5 m/s 761 mmHg 78%
    05:00 +12°C° 0 mm 5 m/s 761 mmHg 77%
    06:00 +13°C° 0 mm 6 m/s 761 mmHg 75%
    07:00 +14°C° 0 mm 6 m/s 761 mmHg 74%
    08:00 +15°C° 0.2 mm 6 m/s 761 mmHg 71%
    09:00 +16°C° 0.2 mm 6 m/s 762 mmHg 68%
    10:00 +19°C° 0.2 mm 6 m/s 762 mmHg 65%
    11:00 +19°C° 0.8 mm 6 m/s 761 mmHg 65%
    12:00 +19°C° 0.8 mm 6 m/s 761 mmHg 65%
    13:00 +20°C° 0.8 mm 5 m/s 761 mmHg 65%
    14:00 +20°C° 0.6 mm 5 m/s 760 mmHg 65%
    15:00 +20°C° 0.6 mm 4 m/s 760 mmHg 64%
    16:00 +20°C° 0.6 mm 3 m/s 760 mmHg 64%
    17:00 +18°C° 0.4 mm 3 m/s 760 mmHg 68%
    18:00 +17°C° 0.4 mm 2 m/s 760 mmHg 72%
    19:00 +16°C° 0.4 mm 2 m/s 760 mmHg 77%
    20:00 +15°C° 0 mm 2 m/s 760 mmHg 78%
    21:00 +14°C° 0 mm 2 m/s 760 mmHg 80%
    22:00 +13°C° 0 mm 2 m/s 760 mmHg 81%
    23:00 +13°C° 0 mm 2 m/s 760 mmHg 82%

    Demain, 28 Mai, Jeudi

    Heure Température Précipitation Vent Pression Humidité
    00:00 +11°C° 0 mm 3 m/s 760 mmHg 84%
    01:00 +11°C° 0 mm 3 m/s 760 mmHg 85%
    02:00 +11°C° 0 mm 3 m/s 760 mmHg 85%
    03:00 +10°C° 0 mm 3 m/s 759 mmHg 86%
    04:00 +10°C° 0 mm 3 m/s 759 mmHg 86%
    05:00 +12°C° 0 mm 3 m/s 759 mmHg 82%
    06:00 +13°C° 0 mm 3 m/s 759 mmHg 78%
    07:00 +16°C° 0 mm 3 m/s 759 mmHg 73%
    08:00 +17°C° 0.2 mm 4 m/s 759 mmHg 69%
    09:00 +18°C° 0.2 mm 4 m/s 759 mmHg 65%
    10:00 +19°C° 0.2 mm 4 m/s 759 mmHg 61%
    11:00 +20°C° 0.3 mm 4 m/s 758 mmHg 59%
    12:00 +20°C° 0.3 mm 4 m/s 757 mmHg 57%
    13:00 +21°C° 0.3 mm 4 m/s 757 mmHg 55%
    14:00 +21°C° 0.3 mm 4 m/s 757 mmHg 56%
    15:00 +20°C° 0.3 mm 3 m/s 757 mmHg 58%
    16:00 +20°C° 0.3 mm 3 m/s 756 mmHg 60%
    17:00 +19°C° 0.5 mm 3 m/s 756 mmHg 66%
    18:00 +17°C° 0.5 mm 3 m/s 756 mmHg 72%
    19:00 +15°C° 0.5 mm 4 m/s 756 mmHg 78%
    20:00 +14°C° 0.4 mm 4 m/s 757 mmHg 81%
    21:00 +13°C° 0.4 mm 4 m/s 757 mmHg 85%
    22:00 +12°C° 0.4 mm 5 m/s 757 mmHg 88%
    23:00 +12°C° 0.6 mm 4 m/s 757 mmHg 88%

    Après-demain, 29 Mai, Vendredi

    Heure Température Précipitation Vent Pression Humidité
    00:00 +11°C° 0.6 mm 4 m/s 757 mmHg 88%
    01:00 +11°C° 0.6 mm 4 m/s 757 mmHg 89%
    02:00 +11°C° 0.1 mm 4 m/s 757 mmHg 88%
    03:00 +11°C° 0.1 mm 3 m/s 757 mmHg 87%
    04:00 +11°C° 0.1 mm 3 m/s 756 mmHg 86%
    05:00 +12°C° 0 mm 4 m/s 756 mmHg 83%
    06:00 +12°C° 0 mm 4 m/s 757 mmHg 80%
    07:00 +13°C° 0 mm 4 m/s 757 mmHg 77%
    08:00 +14°C° 0 mm 4 m/s 757 mmHg 71%
    09:00 +15°C° 0 mm 4 m/s 757 mmHg 66%
    10:00 +18°C° 0 mm 4 m/s 757 mmHg 60%
    11:00 +18°C° 0.3 mm 4 m/s 756 mmHg 61%
    12:00 +17°C° 0.3 mm 5 m/s 756 mmHg 63%
    13:00 +17°C° 0.3 mm 5 m/s 756 mmHg 64%
    14:00 +17°C° 0.2 mm 5 m/s 756 mmHg 63%
    15:00 +17°C° 0.2 mm 5 m/s 756 mmHg 63%
    16:00 +17°C° 0.2 mm 5 m/s 755 mmHg 62%
    17:00 +17°C° 0 mm 4 m/s 755 mmHg 66%
    18:00 +16°C° 0 mm 3 m/s 755 mmHg 70%
    19:00 +15°C° 0 mm 2 m/s 755 mmHg 75%
    20:00 +13°C° 0 mm 3 m/s 756 mmHg 75%
    21:00 +12°C° 0 mm 3 m/s 756 mmHg 75%
    22:00 +11°C° 0 mm 3 m/s 756 mmHg 75%
    23:00 +10°C° 0 mm 4 m/s 756 mmHg 74%

    30 Mai, Samedi

    Heure Température Précipitation Vent Pression Humidité
    00:00 +10°C° 0 mm 4 m/s 756 mmHg 72%
    01:00 +8°C° 0 mm 4 m/s 756 mmHg 71%
    02:00 +8°C° 0 mm 4 m/s 756 mmHg 72%
    03:00 +9°C° 0 mm 3 m/s 756 mmHg 73%
    04:00 +8°C° 0 mm 3 m/s 756 mmHg 74%
    05:00 +10°C° 0 mm 4 m/s 756 mmHg 72%
    06:00 +11°C° 0 mm 4 m/s 756 mmHg 70%
    07:00 +13°C° 0 mm 4 m/s 756 mmHg 68%
    08:00 +14°C° 0 mm 4 m/s 756 mmHg 62%
    09:00 +17°C° 0 mm 4 m/s 756 mmHg 57%
    10:00 +18°C° 0 mm 4 m/s 756 mmHg 52%
    11:00 +18°C° 0 mm 3 m/s 756 mmHg 51%
    12:00 +18°C° 0 mm 3 m/s 756 mmHg 50%
    13:00 +18°C° 0 mm 3 m/s 756 mmHg 50%
    14:00 +18°C° 0 mm 2 m/s 755 mmHg 50%
    15:00 +19°C° 0 mm 2 m/s 755 mmHg 50%
    16:00 +19°C° 0 mm 2 m/s 755 mmHg 50%
    17:00 +17°C° 0 mm 2 m/s 755 mmHg 56%
    18:00 +16°C° 0 mm 1 m/s 755 mmHg 62%
    19:00 +14°C° 0 mm 1 m/s 754 mmHg 67%
    20:00 +13°C° 0 mm 1 m/s 755 mmHg 70%
    21:00 +12°C° 0 mm 1 m/s 755 mmHg 72%
    22:00 +12°C° 0 mm 1 m/s 755 mmHg 74%
    23:00 +11°C° 0 mm 1 m/s 755 mmHg 76%

    31 Mai, Dimanche

    Heure Température Précipitation Vent Pression Humidité
    00:00 +11°C° 0 mm 1 m/s 755 mmHg 78%
    01:00 +10°C° 0 mm 1 m/s 755 mmHg 79%
    02:00 +10°C° 0 mm 1 m/s 755 mmHg 80%
    03:00 +9°C° 0 mm 1 m/s 755 mmHg 81%
    04:00 +9°C° 0 mm 1 m/s 755 mmHg 82%
    05:00 +11°C° 0 mm 1 m/s 755 mmHg 78%
    06:00 +13°C° 0 mm 2 m/s 755 mmHg 73%
    07:00 +14°C° 0 mm 2 m/s 755 mmHg 69%
    08:00 +16°C° 0 mm 2 m/s 755 mmHg 65%
    09:00 +17°C° 0 mm 3 m/s 755 mmHg 60%
    10:00 +18°C° 0 mm 4 m/s 755 mmHg 56%
    11:00 +19°C° 0 mm 4 m/s 755 mmHg 54%
    12:00 +20°C° 0 mm 4 m/s 754 mmHg 52%
    13:00 +20°C° 0 mm 4 m/s 754 mmHg 50%
    14:00 +20°C° 0.3 mm 4 m/s 754 mmHg 54%
    15:00 +20°C° 0.3 mm 4 m/s 754 mmHg 58%
    16:00 +19°C° 0.3 mm 4 m/s 753 mmHg 61%
    17:00 +18°C° 0.2 mm 4 m/s 753 mmHg 67%
    18:00 +15°C° 0.2 mm 4 m/s 753 mmHg 72%
    19:00 +13°C° 0.2 mm 4 m/s 753 mmHg 77%
    20:00 +12°C° 0 mm 4 m/s 753 mmHg 79%
    21:00 +11°C° 0 mm 4 m/s 753 mmHg 81%
    22:00 +10°C° 0 mm 3 m/s 753 mmHg 83%
    23:00 +9°C° 0 mm 3 m/s 753 mmHg 86%

    1 Juin, Lundi

    Heure Température Précipitation Vent Pression Humidité
    00:00 +9°C° 0 mm 3 m/s 753 mmHg 89%
    01:00 +8°C° 0 mm 2 m/s 753 mmHg 91%
    02:00 +8°C° 0 mm 2 m/s 753 mmHg 92%
    03:00 +8°C° 0 mm 2 m/s 753 mmHg 93%
    04:00 +9°C° 0 mm 1 m/s 753 mmHg 94%
    05:00 +10°C° 0 mm 1 m/s 753 mmHg 89%
    06:00 +12°C° 0 mm 1 m/s 754 mmHg 85%
    07:00 +13°C° 0 mm 1 m/s 754 mmHg 80%
    08:00 +14°C° 0 mm 1 m/s 754 mmHg 77%
    09:00 +15°C° 0 mm 1 m/s 754 mmHg 74%
    10:00 +16°C° 0 mm 1 m/s 755 mmHg 71%
    11:00 +16°C° 0 mm 2 m/s 755 mmHg 72%
    12:00 +16°C° 0 mm 2 m/s 755 mmHg 74%
    13:00 +16°C° 0 mm 3 m/s 754 mmHg 76%
    14:00 +16°C° 0 mm 3 m/s 754 mmHg 75%
    15:00 +16°C° 0 mm 2 m/s 754 mmHg 75%
    16:00 +16°C° 0 mm 2 m/s 754 mmHg 74%
    17:00 +16°C° 0 mm 2 m/s 754 mmHg 77%
    18:00 +15°C° 0 mm 1 m/s 754 mmHg 80%
    19:00 +15°C° 0 mm 1 m/s 754 mmHg 83%
    20:00 +14°C° 0 mm 1 m/s 754 mmHg 85%
    21:00 +14°C° 0 mm 1 m/s 754 mmHg 88%
    22:00 +13°C° 0 mm 1 m/s 754 mmHg 90%
    23:00 +13°C° 0 mm 1 m/s 754 mmHg 91%
    Voir plus